User: anonymous   Login
Location: Unspecified
(0.0000°N, 0.0000°E)
Time: 06:47:49
(UTC+00:00)
Language:

CUTE-I - Orbit

View from above orbital plane
View from above orbital plane
View from above satellite
View from above satellite

Ground track
Ground track

The orbit data is extracted from the following two-line orbital elements,

1 27844U 03031E   17087.93335796 +.00000077 +00000-0 +54756-4 0  9995
2 27844 098.6919 098.1011 0009072 213.8393 146.2206 14.22024027712876
Epoch (UTC): 28 March 2017 22:24:02
Eccentricity: 0.0009072
inclination: 98.6919°
perigee height: 812 km
apogee height: 825 km
right ascension of ascending node: 98.1011°
argument of perigee: 213.8393°
revolutions per day: 14.22024027
mean anomaly at epoch: 146.2206°
orbit number at epoch: 71287

The dashed part of the orbit path shows where the satellite is in the earth's shadow,  

DLR